Regional Weather Roundup
Issued by NWS

Home | Current Version | Previous Version | Text Only | Print | Product List | Glossary On
Versions: 1 2 3 4 5 6 7 8 9 10 11 12 13 14 15 16 17 18 19 20 21 22 23 24 25 26 27 28 29 30 31 32 33 34 35 36 37 38 39 40 41 42 43 44 45 46 47 48 49 50
000
ASUS45 KTFX 040419
RWRMT
MONTANA HOURLY WEATHER ROUNDUP
NATIONAL WEATHER SERVICE GREAT FALLS MT
919 PM MST TUE MAR 3 2015

NOTE: "FAIR" INDICATES FEW OR NO CLOUDS BELOW 12000 FEET WITH NO
SIGNIFICANT WEATHER AND/OR OBSTRUCTIONS TO VISIBILITY.

* THESE STATIONS ARE NOT UNDER NWS QUALITY CONTROL. THEY DO NOT
   REPORT WEATHER SUCH AS PRECIPITATION OR FOG.

MTZ001>007-043-040500-
WEST OF THE DIVIDE
CITY           SKY/WX    TMP DP  RH WIND       PRES   REMARKS
KALISPELL      CLEAR     18  10  71 N3        30.10R
MISSOULA       MOCLDY    25   9  50 NW3       30.11R
BUTTE          CLEAR      7   0  73 E6        29.98R WCI  -4
MULLAN PASS    CLEAR     12   7  80 NW6       29.96R WCI   2
* ANACONDA     CLEAR     12   3  67 SW3        N/A
* ESSEX        N/A       16   0  49 SE6G12     N/A   WCI   7
* EUREKA APT   CLEAR     19   7  59 CALM      30.13R
* HAMILTON APT PTCLDY    19  12  74 SE5       30.09R WCI  12
* LIBBY APT    CLEAR     21  14  74 SE3       30.12R
* LINCOLN      N/A       14  -2  49 SW2        N/A
* LOOKOUT PASS N/A       16   7  67 N2         N/A
* POLSON       N/A       16   6  64 N/A        N/A
* RONAN APT    PTCLDY    21   9  60 N/A        N/A
* SEELEY LAKE  N/A        7  -3  63 N1G7       N/A
* THOMP F APT  CLEAR     13   1  58 N8         N/A   WCI   2
$$

MTZ008-052>055-040500-
SOUTHWEST MONTANA
CITY           SKY/WX    TMP DP  RH WIND       PRES   REMARKS
BOZEMAN        CLEAR      1  -4  79 SE5       30.05R WCI  -9
DILLON         CLEAR      9   1  70 S6        29.97R WCI  -1
* W YELLOWSTON PTCLDY     5  -5  63 E1         N/A
* THREE FORKS  CLEAR     10  -2  58 N/A        N/A
* BOULDER HILL N/A        6  -3  66 SW1        N/A
* MONIDA PASS  N/A        9   1  70 SW4        N/A
* RAYNOLDS PAS N/A        3 -31  18 NE2        N/A
* WHITEHALL    N/A       15   1  54 E5G10      N/A   WCI   7
* WISE RIVER   N/A       14  -1  51 SE8        N/A   WCI   3
$$

MTZ009>010-012-014-046-048-049-054-040500-
EAST SLOPES AND CENTRAL MONTANA
CITY           SKY/WX    TMP DP  RH WIND       PRES   REMARKS
CUT BANK       CLOUDY     9  -2  61 W13       30.10R WCI  -7
GREAT FALLS    PTCLDY     7  -6  55 W3        30.11R
HELENA         CLEAR     16   3  56 W5        30.07R WCI   8
MALMSTROM AFB  MOCLDY    12  -6  44 N/A       30.13R
* CONRAD       CLEAR      7  -8  50 NW5        N/A   WCI  -2
* DEARBORN     N/A        8   4  84 N/A        N/A
* EAST GLACIER N/A        1  -3  83 NW1        N/A
* MONARCH      N/A       -1 -11  62 S3         N/A
* PENDROY      N/A        1  -5  75 NW8        N/A   WCI -13
* ROGERS PASS  N/A        3  -3  76 NW2        N/A
* SWEET GRASS  N/A        8  -8  47 NW8        N/A   WCI  -4
* WHITE SULPH  N/A        6  -6  57 NW2        N/A
$$

MTZ011-013-016-021-035-040-045-047-050-051-040500-
NORTH CENTRAL MONTANA
CITY           SKY/WX    TMP DP  RH WIND       PRES   REMARKS
HAVRE          CLEAR      9  -2  61 W5        30.15R
LEWISTOWN      CLEAR      1  -6  72 W10       30.04R WCI -15
* N BAR RANCH  CLEAR      9  -6  50 NW17G24   29.97R WCI  -9
* CHINOOK      CLEAR      9  -2  61 W9        30.16R WCI  -4
* FORT BENTON  PTCLDY    16  -2  45 W9        30.17R WCI   5
* CHESTER      N/A       10  -4  53 N2         N/A
* DENTON       N/A       10  -4  53 NW11       N/A   WCI  -4
* GEYSER       N/A        9  -3  58 W12        N/A   WCI  -6
* JUDITH GAP   N/A        7  -6  55 NW20G27    N/A   WCI -13
* LOMA         N/A       14  -2  49 W6G11      N/A   WCI   5
$$

MTZ017>020-022>027-061-062-040500-
NORTHEAST MONTANA
CITY           SKY/WX    TMP DP  RH WIND       PRES   REMARKS
GLASGOW        FAIR       7  -4  60 NW14      30.08R WCI -10
JORDAN         CLEAR     12  -2  53 NW18      30.06R WCI  -5
SIDNEY         PTCLDY     7  -4  60 NW13G22   30.09R WCI  -9
WOLF POINT     CLEAR     10  -2  58 NW22G29   30.10R WCI -10
* BEAVER HILL  N/A       11  -4  50 NW27G34    N/A   WCI -10
* CIRCLE       N/A       11   4  73 NW8G19     N/A   WCI  -1
* LINDSAY DVD  N/A        9  -1  63 W20G31     N/A   WCI -10
* NAVAJO       N/A       -3 -12  65 N20G29     N/A   WCI -26
* PLENTYWOOD A CLEAR     -2 -11  65 NW18      30.03R WCI -24
* POPLAR APT   CLEAR      7   0  73 NW15      30.10R WCI -10
* SACO         N/A        7  -3  63 NW9        N/A   WCI  -6
$$

MTZ028>042-056>058-040500-
SOUTHCENTRAL AND SOUTHEAST MONTANA
CITY           SKY/WX    TMP DP  RH WIND       PRES   REMARKS
BAKER          MOCLDY     9  -4  55 W14       29.99S WCI  -7
BILLINGS       CLEAR     10  -6  48 W15       30.07R WCI  -7
LIVINGSTON     PTCLDY     7  -2  66 SW7       30.03R WCI  -5
MILES CITY     FAIR      10  -2  58 W9        30.07R WCI  -3
* BIG TIMBER A PTCLDY    10   0  64 W10       30.02S WCI  -4
* FORSYTH APT  CLEAR     12   1  61 W6        30.09R WCI   2
* LAUREL APT   CLEAR     10  -4  53 W5         N/A   WCI   1
* ROUNDUP APT  CLEAR     12 -11  34 N/A        N/A
* ALZADA       N/A        0  -7  72 W3         N/A
* HYSHAM       N/A       11  -7  44 W4G9       N/A
* REED POINT   N/A        9  -3  58 N/A        N/A
* ROSCOE HILL  N/A        5  -7  57 SW3        N/A
$$

REGIONAL REPORTS...DAKOTAS
CITY           SKY/WX    TMP DP  RH WIND       PRES   REMARKS
WILLISTON      PTCLDY     3  -4  72 N18G25    30.04R WCI -17
DICKINSON      MOCLDY     1  -6  72 W8        29.95S WCI -13
BEACH          CLOUDY    10   0  64 NW22G41   29.99R WCI -10
CROSBY         FAIR      -2  -8  75 NW13      30.03R WCI -21
TIOGA          LGT SNOW   1   0  95 NW13      30.01R WCI -17
WATFORD CITY   LGT SNOW   5   0  80 W18G24    30.00R VSB 2 1/2 WCI -15
BISMARCK       PTCLDY     3  -6  66 NW6       30.07R WCI  -8
GRAND FORKS    PTCLDY     0  -8  68 W8        30.02R WCI -14
FARGO          CLEAR      1  -8  65 NW10      30.05R WCI -15
BUFFALO SD     CLEAR      1  -6  72 W12       29.92S WCI -16
RAPID CITY     PTCLDY     3  -6  66 W5        30.04R WCI  -7
$$

REGIONAL REPORTS...WYOMING/IDAHO/WASHINGTON
CITY           SKY/WX    TMP DP  RH WIND       PRES   REMARKS
GILLETTE       CLEAR      1  -6  72 W12       29.99R WCI -16
SHERIDAN       CLEAR     -2 -11  65 CALM      30.04R
CODY           PTCLDY     3  -4  72 CALM      30.00R
YELLOWSTONE LA PTCLDY    -6 -11  78 CALM      29.85R
SALMON         PTCLDY    25   3  38 N6        30.03R WCI  18
MULLAN PASS    CLEAR     12   7  80 NW6       29.96S WCI   2
SAND POINT     CLEAR     27  18  69 CALM      30.13R
SPOKANE        CLEAR     28  10  47 SW8       30.11S WCI  20
$$

REGIONAL REPORTS...ALBERTA
CITY           SKY/WX    TMP DP  RH WIND       PRES   REMARKS
CALGARY        N/A       12  -4  48 VRB2      30.09S
LETHBRIDGE     N/A        1  -4  79 SW9       30.16R WCI -14
MEDICINE HAT   CLEAR      7  -2  66 W5        30.19R WCI  -2
EDMONTON       N/A       -2 -13  59 CALM      30.18R
WATERTON GATE  N/A      -15 -18  86 SW2        N/A
CARDSTON       N/A       -2  -9  72 SW7        N/A   WCI -15
MILK RIVER     N/A        3  -8  60 N12        N/A   WCI -14
$$

REGIONAL REPORTS...SASKATCHEWAN
CITY           SKY/WX    TMP DP  RH WIND       PRES   REMARKS
SWIFT CURRENT  CLEAR     -6  -9  87 NW13      30.05R WCI -26
REGINA         N/A       -9 -15  74 NW10      30.07R WCI -27
VAL MARIE      N/A        5   1  83 N16G22     N/A   WCI -14
ASSINIBOIA     N/A       -8 -11  86 NW9        N/A   WCI -25
CORONACH       N/A       -4 -11  71 NW12       N/A   WCI -22

$$




USA.gov is the U.S. government's official web portal to all federal, state and local government web resources and services.